リニア-ニート彗星

204P/LINEAR-NEAT (2015)

English version
Home page
Updated on June 11, 2016

---------------------------------------------------------------------

・ プロフィール

・ 写真集

・ 軌道要素

Epoch 2015 Dec. 4.0 TT = JDT 2457360.5
T 2015 Dec. 11.59944 TT                                 MPCW
q   1.9295958            (2000.0)            P               Q
n   0.14102793     Peri.  355.08214     -0.24501551     -0.96343498
a   3.6553808      Node   109.06899     +0.89338341     -0.26780761
e   0.4721218      Incl.    6.58874     +0.37660788     +0.00849257
P   6.99
From 1123 observations 2001 Oct. 13-2016 Feb. 17, mean residual 0".7.
     Nongravitational parameters A1 = +0.42, A2 = -0.0210.

・ 星図

・ 光度変化

        m1 = 9.5 + 5 logΔ + 25 log r(t - 50)

---------------------------------------------------------------------

軌道要素はM.P.E.C. 2016-D32に掲載されたものです。
星図はステラナビゲータ Ver.8 (アストロアーツ) で作成したものです。
光度グラフはComet for Windowsで作成したものです。

---------------------------------------------------------------------

Copyright(C) Seiichi Yoshida (comet@aerith.net). All rights reserved.